[[{"header":{"parameterUnit":"m.s-1","parameterCategory":1,"la1":30.2991,"la2":30.254,"lo1":-89.0895,"lo2":-89.0444,"dy":0.0017,"dx":0.0017,"nx":28,"ny":28,"refTime":"2025-07-04T09:00:00:Z","depth":0,"parameterNumber":2,"parameterNumberName":"U-component_of_WINDS"},"data":[0,0,0,0,0,0,0,0,0,0,0,0,0,0,0,0,0,0,0,0,0,0,0,0,0,0,0,0,0,0,0,0,0,0,0,0,0,0,0,0,0,0,0,0,0,0,0,0,0,0,0,0,0,0,0,0,0,0,1.0486,1.0489,0,1.0706,1.0709,1.0711,1.0717,1.0714,1.0712,1.0709,1.094,1.0949,1.0957,0,0,0,0,0,0,0,0,0,0,0,0,0,1.0077,1.0085,1.0486,1.0489,1.0492,1.0706,1.0709,1.0712,1.0718,1.0714,1.0711,1.0708,1.0937,1.0948,1.0958,0,0,0,0,0,0,0,0,0,0,0,0,0,1.0272,1.0087,1.0486,1.052,1.0525,1.0705,1.0709,1.0713,1.0718,1.0714,1.071,1.0706,1.0934,1.0947,1.096,1.1121,0,0,1.0999,1.1005,0,0,0,0,0,0,0,0,1.0261,1.0287,1.0512,1.0518,1.0524,1.068,1.0649,1.085,1.0719,1.0645,1.0709,1.0704,1.0857,1.0876,1.0927,1.1132,1.1142,1.1,1.1008,1.1014,1.1018,0,0,0,0,0,0,0,1.0247,1.0278,1.0573,1.0516,1.0523,1.0527,1.055,1.0688,1.0772,1.0651,1.0652,1.0678,1.086,1.0914,1.0932,1.1146,1.1,1.1012,1.102,1.1025,1.1497,1.1502,0,0,0,0,0,0,1.0226,1.0266,1.0566,1.058,1.038,1.0537,1.0563,1.0634,1.077,1.0787,1.0681,1.0677,1.0894,1.0917,1.094,1.114,1.1014,1.1026,1.1034,1.1492,1.1498,1.1503,0,0,0,0,0,0,1.0217,1.0253,1.0557,1.0424,1.0462,1.0549,1.0628,1.0641,1.0695,1.0793,1.0808,1.0721,1.0892,1.0922,1.1076,1.1148,1.1032,1.1044,1.1487,1.1494,1.1501,1.1539,0,0,0,0,0,0,1.0206,1.025,1.031,1.0425,1.047,1.0688,1.0633,1.0648,1.0717,1.0714,1.0834,1.085,1.0891,1.1057,1.1089,1.1164,1.1054,1.1481,1.149,1.1498,1.1532,1.1547,1.1559,0,0,0,0,0,1.0191,1.0313,1.0313,1.035,1.0547,1.0692,1.0718,1.076,1.0722,1.0785,1.0848,1.0846,1.1135,1.1073,1.1109,1.1189,1.1476,1.1487,1.1498,1.1526,1.1544,1.1559,0,0,0,0,0,0,1.0207,1.0329,1.033,1.0493,1.0582,1.0692,1.0773,1.0778,1.0881,1.0874,1.0925,1.0952,1.1106,1.1163,1.1091,1.1353,1.1301,1.132,1.131,1.1328,1.1342,1.1325,1.1065,0,0,0,0,0,1.0229,1.0334,1.0436,1.057,1.0614,1.0686,1.0751,1.0776,1.0871,1.0909,1.0983,1.1077,1.1189,1.1262,1.137,1.154,1.1568,1.1613,1.1627,1.1638,1.1653,1.1749,1.1771,1.1538,1.1538,1.1538,0,0,1.0276,1.0356,1.0419,1.0575,1.0647,1.0757,1.0718,1.0835,1.0918,1.0928,1.1077,1.1135,1.1244,1.1407,1.1482,1.1459,1.1723,1.1651,1.1659,1.1669,1.1762,1.1784,1.1803,1.1545,1.1544,1.1543,0,0,1.0418,1.0488,1.0608,1.0681,1.0789,1.0837,1.0865,1.0976,1.1015,1.1165,1.1175,1.1276,1.1467,1.1544,1.1608,1.1782,1.1784,1.1816,1.1888,1.198,1.1998,1.2015,1.2077,1.2099,1.1831,1.1831,1.1831,0,1.0463,1.0627,1.0669,1.0787,1.0856,1.0869,1.0991,1.1061,1.12,1.1249,1.122,1.1461,1.1535,1.1717,1.1759,1.1811,1.1847,1.1802,1.1992,1.2009,1.2025,1.2085,1.2109,1.1834,1.1834,1.1834,1.1833,0,1.0678,1.0792,1.0876,1.1009,1.1088,1.1208,1.127,1.1345,1.1364,1.1415,1.157,1.1659,1.1786,1.1831,1.1851,1.2017,1.1999,1.1981,1.193,1.205,1.2107,1.2131,1.1839,1.1838,1.1837,1.1836,0,0,1.0835,1.099,1.102,1.1081,1.1203,1.1293,1.1415,1.1538,1.1601,1.1698,1.1803,1.1965,1.1949,1.2022,1.2052,1.2133,1.2266,1.2106,1.2109,1.2132,1.2455,1.2467,1.2493,1.2268,1.2273,1.2277,1.2446,0,1.099,1.1204,1.1246,1.1433,1.154,1.1555,1.1661,1.1749,1.18,1.19,1.1958,1.2072,1.2042,1.2087,1.2168,1.2232,1.2331,1.2221,1.2368,1.2372,1.2339,1.2523,1.2537,1.2692,1.2469,1.2472,1.2475,0,1.1199,1.13,1.1497,1.1605,1.1652,1.1746,1.1863,1.1958,1.2059,1.2091,1.2173,1.2194,1.2323,1.2266,1.2446,1.237,1.2433,1.2474,1.2481,1.2497,1.243,1.2544,1.2743,1.2766,1.2511,1.2508,1.2506,0,1.1294,1.1479,1.1621,1.1673,1.1803,1.187,1.1928,1.2024,1.2096,1.2199,1.2246,1.2363,1.2428,1.2519,1.2572,1.2526,1.2749,1.2696,1.278,1.2779,1.2826,1.2822,1.3038,1.2867,1.2867,1.2866,1.2866,0,1.1463,1.1583,1.1665,1.1752,1.1888,1.1937,1.2071,1.2129,1.2215,1.2315,1.2336,1.243,1.2494,1.2598,1.2641,1.2784,1.2813,1.2844,1.2854,1.2842,1.2838,1.2884,1.2874,1.2872,1.2871,1.287,1.2869,0,1.1591,1.1651,1.1807,1.1918,1.1949,1.2044,1.214,1.2227,1.2279,1.2406,1.2439,1.2521,1.2645,1.2707,1.2861,1.289,1.3051,1.3055,1.3017,1.3021,1.3101,1.3093,1.3354,1.3391,1.3195,1.3197,1.3198,0,1.1694,1.1787,1.1908,1.1976,1.2035,1.2145,1.2218,1.2271,1.2346,1.2469,1.2541,1.2665,1.2767,1.2965,1.304,1.3159,1.3165,1.3248,1.3183,1.3169,1.3167,1.316,1.317,1.326,1.3262,1.3263,1.3264,0,1.1872,1.1897,1.2001,1.2116,1.2202,1.2296,1.2388,1.2443,1.2511,1.2595,1.2721,1.28,1.2958,1.3082,1.3206,1.3268,1.3279,1.3284,1.331,1.3299,1.3273,1.3288,1.3048,1.3278,1.3277,1.3276,1.3275,1.3274,1.1991,1.2075,1.2173,1.2288,1.2363,1.2449,1.2536,1.2599,1.2704,1.2835,1.2861,1.2995,1.3096,1.3263,1.333,1.3436,1.3419,1.3456,1.3465,1.3474,1.3478,1.3256,1.346,1.3459,1.3459,1.3459,1.3458,0,1.217,1.2234,1.234,1.2467,1.2559,1.256,1.2662,1.2739,1.2856,1.2948,1.3048,1.3194,1.3315,1.34,1.3523,1.3592,1.36,1.3623,1.3618,1.3632,1.3487,1.3452,1.3614,1.3614,1.3614,1.3614,1.3614,1.3614,1.2273,1.2414,1.2452,1.2632,1.2696,1.2826,1.2884,1.2965,1.3039,1.32,1.33,1.3354,1.3444,1.3574,1.3685,1.3708,1.3752,1.3775,1.3797,1.3659,1.3642,1.3627,1.3594,1.3784,1.3784,1.3934,1.3935,1.3936]},{"header":{"parameterUnit":"m.s-1","parameterCategory":1,"la1":30.2991,"la2":30.254,"lo1":-89.0895,"lo2":-89.0444,"dy":0.0017,"dx":0.0017,"nx":28,"ny":28,"refTime":"2025-07-04T09:00:00:Z","depth":0,"parameterNumber":3,"parameterNumberName":"V-component_of_WINDS"},"data":[0,0,0,0,0,0,0,0,0,0,0,0,0,0,0,0,0,0,0,0,0,0,0,0,0,0,0,0,0,0,0,0,0,0,0,0,0,0,0,0,0,0,0,0,0,0,0,0,0,0,0,0,0,0,0,0,0,0,0.7312,0.7312,0,0.7377,0.7377,0.7378,0.7285,0.7282,0.7278,0.7275,0.7344,0.7348,0.7353,0,0,0,0,0,0,0,0,0,0,0,0,0,0.7106,0.711,0.7312,0.7312,0.7313,0.7377,0.7377,0.7378,0.7286,0.7281,0.7277,0.7274,0.7342,0.7348,0.7354,0,0,0,0,0,0,0,0,0,0,0,0,0,0.7186,0.7112,0.7311,0.7274,0.7272,0.7376,0.7377,0.7379,0.7286,0.7281,0.7276,0.7272,0.734,0.7347,0.7354,0.7499,0,0,0.7377,0.738,0,0,0,0,0,0,0,0,0.7181,0.7193,0.7279,0.7277,0.7274,0.7318,0.733,0.7419,0.7288,0.7281,0.7275,0.7269,0.7339,0.7346,0.7369,0.7502,0.7505,0.7377,0.7382,0.7385,0.7387,0,0,0,0,0,0,0,0.7176,0.719,0.7337,0.728,0.7278,0.7254,0.726,0.7346,0.7337,0.7281,0.7274,0.7283,0.7337,0.7362,0.737,0.7506,0.7377,0.7384,0.7388,0.7391,0.7757,0.7762,0,0,0,0,0,0,0.7175,0.7186,0.7335,0.7339,0.7215,0.7262,0.7269,0.7309,0.7336,0.7335,0.7288,0.7279,0.7352,0.7362,0.7372,0.7541,0.7385,0.7392,0.7396,0.7751,0.7758,0.7763,0,0,0,0,0,0,0.7171,0.7189,0.7333,0.7261,0.7277,0.7271,0.7317,0.7313,0.7338,0.7341,0.7338,0.7316,0.7349,0.7362,0.7467,0.7542,0.7395,0.7402,0.7745,0.7753,0.7761,0.7881,0,0,0,0,0,0,0.7165,0.7188,0.7244,0.7263,0.7282,0.7427,0.7321,0.7318,0.7351,0.734,0.7366,0.7366,0.7346,0.7457,0.7474,0.755,0.7408,0.7738,0.7749,0.7758,0.7871,0.7892,0.7911,0,0,0,0,0,0.7158,0.7276,0.7247,0.7265,0.7351,0.7432,0.7443,0.7417,0.7357,0.7412,0.7413,0.7365,0.7531,0.7468,0.7487,0.7566,0.7733,0.7746,0.7757,0.7862,0.7888,0.7911,0,0,0,0,0,0,0.7267,0.7278,0.7246,0.7373,0.7402,0.7416,0.7485,0.7446,0.7493,0.7481,0.7447,0.7454,0.7566,0.7576,0.7506,0.7705,0.7622,0.7639,0.7695,0.772,0.774,0.7735,0.7414,0,0,0,0,0,0.7306,0.7371,0.7377,0.7489,0.7505,0.7493,0.7527,0.7504,0.7533,0.7545,0.7554,0.7584,0.7642,0.7681,0.7736,0.7871,0.7874,0.7934,0.7954,0.7971,0.7986,0.8055,0.8082,0.7803,0.7803,0.7802,0,0,0.7387,0.7401,0.7445,0.7511,0.7531,0.7598,0.7504,0.758,0.7629,0.7557,0.7656,0.7663,0.7694,0.7814,0.7868,0.7826,0.8063,0.7986,0.7999,0.8005,0.807,0.8097,0.812,0.7811,0.7809,0.7808,0,0,0.7569,0.7587,0.7681,0.7702,0.7732,0.7722,0.7745,0.7764,0.7765,0.7864,0.781,0.7868,0.797,0.7993,0.8019,0.8206,0.8162,0.8224,0.833,0.8399,0.8421,0.844,0.8505,0.8529,0.8239,0.8239,0.8239,0,0.7667,0.7766,0.7734,0.7813,0.7843,0.7779,0.7873,0.7895,0.7942,0.7963,0.7916,0.804,0.8057,0.818,0.8225,0.8249,0.8272,0.8222,0.842,0.8439,0.8456,0.8518,0.8543,0.8246,0.8245,0.8245,0.8244,0,0.7884,0.7953,0.8025,0.807,0.8108,0.8195,0.8175,0.8217,0.819,0.8185,0.8285,0.8302,0.8357,0.8384,0.8359,0.8504,0.8476,0.8425,0.8341,0.8491,0.8548,0.8572,0.8257,0.8254,0.8252,0.825,0,0,0.814,0.8163,0.819,0.8208,0.8235,0.8288,0.837,0.8422,0.8459,0.8492,0.8559,0.8645,0.8597,0.8625,0.8602,0.8662,0.8807,0.8603,0.8603,0.8639,0.8964,0.9003,0.9031,0.8777,0.8782,0.8785,0.8961,0,0.8321,0.8462,0.8434,0.8572,0.8635,0.8572,0.8643,0.8667,0.8664,0.8716,0.8712,0.8773,0.8705,0.8722,0.8778,0.8777,0.8871,0.8764,0.8839,0.8842,0.8834,0.9061,0.9103,0.9269,0.8984,0.8988,0.899,0,0.8552,0.8591,0.8736,0.8749,0.8774,0.8839,0.8883,0.8934,0.8959,0.8952,0.8982,0.8946,0.9026,0.894,0.905,0.8977,0.9006,0.9009,0.9015,0.9021,0.8926,0.9074,0.9321,0.9346,0.9026,0.9023,0.902,0,0.8723,0.8812,0.8909,0.8927,0.8946,0.8992,0.9002,0.9021,0.9054,0.9092,0.9112,0.916,0.9186,0.9224,0.9201,0.9141,0.9314,0.9226,0.931,0.931,0.935,0.9348,0.9606,0.9369,0.9368,0.9368,0.9367,0,0.8928,0.9019,0.8986,0.9046,0.9145,0.911,0.9209,0.9211,0.9228,0.9287,0.9235,0.9291,0.9258,0.9311,0.9294,0.9386,0.9398,0.9394,0.9389,0.9399,0.9399,0.9418,0.9406,0.9374,0.9373,0.9372,0.937,0,0.9137,0.9119,0.922,0.9228,0.9232,0.9304,0.931,0.9366,0.9357,0.9431,0.9447,0.9434,0.9493,0.9473,0.9538,0.9525,0.9642,0.9622,0.9634,0.9629,0.9713,0.9705,0.9992,1.0027,0.9768,0.977,0.9772,0,0.9269,0.9337,0.9351,0.9386,0.9399,0.9456,0.9488,0.9455,0.949,0.9521,0.9572,0.9626,0.9668,0.9766,0.9762,0.981,0.979,0.9886,0.9797,0.9804,0.979,0.9787,0.9792,0.9905,0.9908,0.991,0.9912,0,0.9506,0.9492,0.954,0.9584,0.9623,0.9656,0.9685,0.9716,0.9685,0.9727,0.9786,0.9818,0.9881,0.9936,0.9978,0.9987,0.9945,0.994,0.9962,0.9974,0.9978,0.9976,0.9683,0.9934,0.9932,0.9931,0.9929,0.9928,0.968,0.9736,0.9754,0.9807,0.9825,0.9852,0.9903,0.9899,0.9948,0.9997,0.9974,1.0042,1.0061,1.0114,1.0129,1.0181,1.0143,1.0175,1.0183,1.0191,1.0202,0.9969,1.0188,1.0188,1.0187,1.0186,1.0186,0,0.9913,0.992,0.997,1.001,1.0052,1.0006,1.0034,1.0072,1.0132,1.0154,1.0195,1.0261,1.0312,1.0311,1.0358,1.04,1.0381,1.0413,1.041,1.0412,1.0233,1.0209,1.0427,1.0427,1.0427,1.0427,1.0427,1.0427,1.004,1.0131,1.012,1.0219,1.0225,1.029,1.031,1.0334,1.035,1.0426,1.0468,1.0466,1.0478,1.0524,1.0569,1.0567,1.0586,1.0626,1.0617,1.0449,1.0425,1.0403,1.038,1.063,1.0631,1.0791,1.0793,1.0794]}]]